This is the latest recevied weather packets stored in our database for station/object K4DNM. If no packets are shown the sender has not sent any weather packets the latest 1 day(s).
| Time | Temp. | Humidity | Pressure | Rain* | Wind** | Luminosity | Snow |
|---|---|---|---|---|---|---|---|
| 1778003326 | 26.11° C | 50% | 1015.3 hPa | 0 mm | 1.34 m/s, 129° | 968 W/m² | - |
| 1778003023 | 26.11° C | 47% | 1015.4 hPa | 0 mm | 1.34 m/s, 173° | 731 W/m² | - |
| 1778002723 | 26.11° C | 46% | 1015.4 hPa | 0 mm | 1.34 m/s, 215° | 972 W/m² | - |
| 1778002421 | 25.56° C | 50% | 1015.4 hPa | 0 mm | 1.79 m/s, 158° | 1013 W/m² | - |
| 1778002122 | 25.56° C | 49% | 1015.5 hPa | 0 mm | 1.79 m/s, 175° | 415 W/m² | - |
| 1778001821 | 26.11° C | 49% | 1015.5 hPa | 0 mm | 1.34 m/s, 202° | 947 W/m² | - |
| 1778001523 | 25.56° C | 51% | 1015.4 hPa | 0 mm | 1.34 m/s, 0° | 1006 W/m² | - |
| 1778001221 | 25.56° C | 49% | 1015.5 hPa | 0 mm | 1.34 m/s, 161° | 964 W/m² | - |
| 1778000922 | 25.56° C | 51% | 1015.5 hPa | 0 mm | 1.79 m/s, 161° | 979 W/m² | - |
| 1778000622 | 25.56° C | 52% | 1015.6 hPa | 0 mm | 1.79 m/s, 195° | 976 W/m² | - |
| 1778000324 | 25.56° C | 52% | 1015.6 hPa | 0 mm | 1.34 m/s, 9° | 922 W/m² | - |
| 1778000083 | 25.56° C | 51% | 1015.7 hPa | 0 mm | 1.79 m/s, 204° | 937 W/m² | - |
| 1777999724 | 25° C | 52% | 1015.8 hPa | 0 mm | 1.79 m/s, 121° | 955 W/m² | - |
| 1777999419 | 25.56° C | 52% | 1015.8 hPa | 0 mm | 1.34 m/s, 171° | 966 W/m² | - |
| 1777999120 | 25° C | 51% | 1015.8 hPa | 0 mm | 1.34 m/s, 166° | 971 W/m² | - |
| 1777998817 | 24.44° C | 54% | 1015.9 hPa | 0 mm | 1.79 m/s, 340° | 963 W/m² | - |
| 1777998518 | 24.44° C | 55% | 1015.8 hPa | 0 mm | 1.79 m/s, 178° | 956 W/m² | - |
| 1777998217 | 24.44° C | 56% | 1016 hPa | 0 mm | 2.24 m/s, 193° | 962 W/m² | - |
| 1777997918 | 24.44° C | 55% | 1016 hPa | 0 mm | 2.24 m/s, 158° | 955 W/m² | - |
| 1777997617 | 25° C | 54% | 1016 hPa | 0 mm | 1.79 m/s, 178° | 944 W/m² | - |
| 1777997317 | 25° C | 55% | 1016.1 hPa | 0 mm | 0.89 m/s, 164° | 932 W/m² | - |
| 1777997016 | 25° C | 53% | 1016.2 hPa | 0 mm | 0.89 m/s, 153° | 937 W/m² | - |
| 1777996778 | 24.44° C | 55% | 1016.3 hPa | 0 mm | 0.89 m/s, 167° | 923 W/m² | - |
| 1777996477 | 23.89° C | 55% | 1016.4 hPa | 0 mm | 1.79 m/s, 76° | 924 W/m² | - |
| 1777996118 | 23.89° C | 59% | 1016.3 hPa | 0 mm | 2.24 m/s, 182° | 901 W/m² | - |
* Rain latest hour (hover to see other rain measurements)
** Current wind speed in m/s (hover to see current wind gust speed)